Back to catalog

ATLAS 5 CENTAUR DEB

AliveHEO
NORAD 55855·DEBRIS·🇺🇸 United States

Launched Oct 17, 2018 from Cape Canaveral Space Force Station

Loading…

Next Passes (next 24 hours)

TLE

AgingSource: Space-Track

Epoch: Aug 27, 2026, 08:11 UTC

1 55855U 18079HH  26239.34100164 -.00000138  00000-0  00000-0 0  9997
2 55855  13.4053   9.4322 4631880  11.9377 355.9625  1.90885264 19439

Track ATLAS 5 CENTAUR DEB in real time with AllMySat

Download on the App Store